Simultaneous Nadir Overpasses (SNOs) Predictions

Prediction of SNOs between METOP-A and TERRA Satellite Orbit:

Table of predicted SNOs for the next 14.0 days since TLE Epoch: 10/18/2015
Index Date (METOP-A) Time (METOP-A) Lat,Lon (METOP-A) SZA (METOP-A ) Date (TERRA) Time (TERRA) Lat,Lon (TERRA) SZA (TERRA ) Distance(km) Time Diff (sec)
1 10/18/2015 13:34:31 81.32, 23.53 94.06 10/18/2015 13:35:17 81.32, 23.69 94.10 2.71 46
2 10/18/2015 14:25:11 -81.32,-168.93 85.91 10/18/2015 14:24:44 -81.31,-168.75 85.90 3.05 27
3 10/21/2015 09:08:49 81.32, 90.07 95.09 10/21/2015 09:09:34 81.33, 90.25 95.14 3.21 45
4 10/21/2015 09:59:29 -81.32,-102.36 84.87 10/21/2015 09:59:01 -81.32,-102.17 84.86 3.14 28
5 10/24/2015 04:43:07 81.32, 156.60 96.10 10/24/2015 04:43:51 81.33, 156.72 96.15 2.26 44
6 10/24/2015 05:33:47 -81.32, -35.78 83.85 10/24/2015 05:33:18 -81.33, -35.68 83.85 1.84 29
7 10/27/2015 00:17:24 81.32,-136.86 97.09 10/27/2015 00:18:07 81.33,-136.90 97.11 0.82 43
8 10/27/2015 01:08:04 -81.32, 30.78 82.86 10/27/2015 01:07:34 -81.32, 30.72 82.89 1.04 30
9 10/29/2015 19:51:43 81.32, -70.73 98.00 10/29/2015 19:52:24 81.32, -70.60 98.03 2.12 41




NCC Satellite Simultaneous Nadir Overpasses (SNOs) Prediction Service
